Regional Weather Roundup
Issued by NWS

Home | Current Version | Previous Version | Graphics & Text | Print | Product List | Glossary On
Versions: 1 2 3 4 5 6 7 8 9 10 11 12 13 14 15 16 17 18 19 20 21 22 23 24 25 26 27 28 29 30 31 32 33 34 35 36 37 38 39 40 41 42 43 44 45 46 47 48 49 50
925
ASUS43 KLOT 041312
RWRIL

ILLINOIS REGIONAL WEATHER ROUNDUP
NATIONAL WEATHER SERVICE CHICAGO/ROMEOVILLE IL
700 AM CST SUN DEC 04 2016

NOTE: "FAIR" INDICATES FEW OR NO CLOUDS BELOW 12,000 FEET WITH NO
SIGNIFICANT WEATHER AND/OR OBSTRUCTIONS TO VISIBILITY.

* THESE STATIONS ARE NOT UNDER NWS QUALITY CONTROL. THEY ALSO MAY NOT
  REPORT WEATHER SUCH AS PRECIPITATION OR FOG.

ILZ001-002-007-009-015-016-024-041400-
NORTHWEST ILLINOIS

CITY           SKY/WX    TMP DP  RH WIND       PRES   REMARKS
MOLINE         LGT SNOW  33  30  88 SE8       30.10S VSB 3/4 WCI  26
STERLING*      LGT SNOW  30  28  93 E8        30.13F VSB 3/4 WCI  23
SAVANNA*       LGT SNOW  31  29  94 SE10      30.11F WCI  22
$$

ILZ003-004-008-010-011-017-018-041400-
NORTH CENTRAL ILLINOIS

CITY           SKY/WX    TMP DP  RH WIND       PRES   REMARKS
ROCKFORD       FLURRIES  32  26  78 SE7       30.16F WCI  26
FREEPORT*      LGT SNOW  30  28  94 SE8       30.14F WCI  22
ROCHELLE*      LGT SNOW  31  29  94 SE8       30.14F WCI  23
DE KALB*       LGT SNOW  31  28  90 E6        30.15F WCI  25
$$

ILZ005-006-012>014-019>023-041400-
NORTHEAST ILLINOIS

CITY           SKY/WX    TMP DP  RH WIND       PRES   REMARKS
CHICAGO-OHARE  CLOUDY    32  26  78 CALM      30.17F
CHICAGO-MIDWAY CLOUDY    33  24  69 SE3       30.17F
AURORA         CLOUDY    33  27  78 E6        30.16F WCI  28
LANSING*       CLOUDY    31  29  92 SE3       30.18F
JOLIET*        CLOUDY    33  29  87 E5        30.16F WCI  28
WAUKEGAN       CLOUDY    32  26  78 CALM      30.17S
DUPAGE AIRPORT CLOUDY    32  26  78 CALM      30.16F
KANKAKEE*      CLOUDY    32  28  86 E6        30.16F WCI  26
WHEELING       CLOUDY    32  24  72 CALM      30.19S
MORRIS*        CLOUDY    32  29  89 CALM      30.16F
ROMEOVILLE*    CLOUDY    31  30  95 E6        30.16F WCI  25
NORTHERLY ISL    N/A     33  25  72 S5          N/A  WCI  29
$$

LMZ740>746-041400-
SOUTHERN LAKE MICHIGAN

STATION/POSITION SKY/WX   TEMP    WIND        PRES    VSBY  WAVE
                          AIR SEA DIR/SP/G                  HT/PER
                          (F)     (DEG/KT/KT) (MB)    (MI)  (FT/S)
SOUTHERN BUOY              36 48  280/  2/  4 1022.3          0
HARRISON CRIB              36     180/ 10/ 12   N/A
BURNHAM HARBOR             33     200/  3/  6   N/A
CALUMET HARBOR             32     190/  3/  3 1021.2F
BURNS HARBOR               33     150/  8/ 12 1022.4S
MICHIGAN CITY              32     110/  7/  9   N/A
$$

ILZ025>027-034>036-040-047-049-050-058-095>099-041400-
WEST-CENTRAL ILLINOIS

CITY           SKY/WX    TMP DP  RH WIND       PRES   REMARKS
QUINCY         MIX PCPN  35  34  96 E8        30.05F FOG     WCI  29
GALESBURG*     LGT SNOW  32  31  95 E5        30.09F WCI  27
MACOMB*        LGT SNOW  32  32  99 E6        30.10F WCI  27
JACKSONVILLE*  LGT RAIN  34  33  93 E9        30.07F WCI  27
PITTSFIELD*    LGT RAIN  35  34  97 E5        30.06F WCI  31
$$

ILZ028>032-037-038-041>044-048-051>054-059>061-041400-
CENTRAL ILLINOIS

CITY           SKY/WX    TMP DP  RH WIND       PRES   REMARKS
PONTIAC        CLOUDY    33  32  98 E7        30.16S WCI  26
BLOOMINGTON    CLOUDY    32  29  88 E10       30.12F WCI  24
DECATUR        CLOUDY   N/A N/A N/A E9        30.11F
PEORIA         LGT SNOW  34  30  85 E6        30.11F FOG     WCI  29
LACON*         FLURRIES  32  29  90 SE3       30.13S
LINCOLN*       CLOUDY    35  32  90 E7        30.11F WCI  29
SPRINGFIELD    LGT SNOW  35  32  88 E8        30.10F FOG     WCI  29
TAYLORVILLE    DRIZZLE   33  32  95 E6        30.09F WCI  28
$$

ILZ033-039-045-046-055>057-062-063-041400-
EAST-CENTRAL ILLINOIS

CITY           SKY/WX    TMP DP  RH WIND       PRES   REMARKS
CHAMPAIGN      CLOUDY    34  29  82 E8        30.13F WCI  27
RANTOUL*       CLOUDY    34  31  90 E7        30.13F WCI  28
MATTOON        LGT SNOW  34  29  82 E6        30.11F WCI  29
PARIS*         CLOUDY    34  31  90 E6        30.14F WCI  29
$$

ILZ079-100>102-041400-
SOUTHWEST ILLINOIS

CITY           SKY/WX    TMP DP  RH WIND       PRES   REMARKS
ALTON          DRIZZLE   36  32  87 E8        30.07F WCI  29
BELLEVILLE     CLOUDY    37  37  99 E6        30.04F WCI  33
CAHOKIA*       CLOUDY    38  34  85 E7        30.04F WCI  33
SPARTA*        DRIZZLE   37  35  92 E8        30.04F WCI  31
$$

ILZ064>066-069>071-074>076-080>082-084>086-088>090-092>094-041400-
SOUTH-CENTRAL ILLINOIS

CITY           SKY/WX    TMP DP  RH WIND       PRES   REMARKS
CARBONDALE     CLOUDY    39  36  89 E7        30.05F WCI  34
CAIRO*         CLOUDY    39  38  94 E8        30.03S WCI  34
EFFINGHAM*     CLOUDY    37  34  90 E5        30.11F WCI  33
MARION         CLOUDY    39  37  93 E8        30.04F WCI  34
CENTRALIA*     CLOUDY    37  35  92 E7        30.06F WCI  32
SALEM*         CLOUDY    38  34  86 E5        30.08F WCI  34
METROPOLIS*    CLOUDY    39  38  93 CALM      30.03F FOG
$$

ILZ067-068-072-073-078-083-087-091-041400-
SOUTHEAST ILLINOIS

CITY           SKY/WX    TMP DP  RH WIND       PRES   REMARKS
LAWRENCEVILLE  CLOUDY    38  33  82 E8        30.12F WCI  32
FLORA*         LGT RAIN  38  35  89 E6        30.10F WCI  33
FAIRFIELD*     CLOUDY    37  35  92 NE6       30.07F WCI  33
HARRISBURG*    CLOUDY    39  36  87 E8        30.06F WCI  34
ROBINSON*      CLOUDY    36  33  88 SE3       30.15F
CARMI*         CLOUDY    38  36  92 E7        30.08F WCI  33
$$

ABBREVIATIONS USED IN REMARKS
   TC - TEMPERATURE IN CELSIUS
  WCI - WIND CHILL INDEX
   HX - HEAT INDEX
  VSB - VISIBILITY
$$





USA.gov is the U.S. government's official web portal to all federal, state and local government web resources and services.